Stations météo

Publicité
Ploumanach, France (7117): Température de l'air & dewpoint: 08.07.2020 17:00:00 - 14.07.2020 17:00:00 (CEST)Ploumanach, France (7117): Vitesse du vent & gusts: 08.07.2020 17:00:00 - 14.07.2020 17:00:00 (CEST)Ploumanach, France (7117): Direction du vent: 08.07.2020 17:00:00 - 14.07.2020 17:00:00 (CEST)Ploumanach, France (7117): reduced air pressure: 08.07.2020 17:00:00 - 14.07.2020 17:00:00 (CEST)Ploumanach, France (7117): visibility: 08.07.2020 17:00:00 - 14.07.2020 17:00:00 (CEST)Ploumanach, France (7117): Quantités de précipitations: 08.07.2020 17:00:00 - 14.07.2020 17:00:00 (CEST)
Date & Time tt [°C] td [°C] ff [km/h] ff [knt] fx [km/h] fx [knt] dd ppp [hPa] vv [km] rr [mm]
14.07.2020 17:00:00 16,8 14,1 21 11 39 21 W 1019,7 12 -
14.07.2020 16:00:00 17,2 14,1 21 11 35 19 W 1019,9 - 0,0
14.07.2020 15:00:00 17,3 14,9 18 10 34 18 W 1020,0 - 0,0
14.07.2020 14:00:00 17,0 15,3 17 9 35 19 WNW 1020,1 12 0,0
14.07.2020 13:00:00 16,3 14,5 15 8 29 16 W 1019,7 - 0,0
14.07.2020 12:00:00 15,9 14,8 16 9 33 18 W 1019,8 - 0,0
14.07.2020 11:00:00 15,9 14,9 18 10 33 18 WSW 1019,8 12 0,0
14.07.2020 10:00:00 15,4 15,2 15 8 29 15 W 1019,6 - 0,4
14.07.2020 09:00:00 15,7 15,7 14 8 26 14 WNW 1019,6 - 0,0
14.07.2020 08:00:00 15,8 15,8 14 8 27 15 WNW 1019,6 0,1 0,4
14.07.2020 07:00:00 15,8 15,8 18 10 31 17 WSW 1019,7 - 0,2
14.07.2020 06:00:00 15,9 15,9 17 9 33 18 WSW 1019,8 - 0,2
14.07.2020 05:00:00 16,0 15,8 17 9 34 18 WSW 1020,1 - 0,2
14.07.2020 04:00:00 16,1 15,9 19 11 33 18 WSW 1020,8 - 0,0
14.07.2020 03:00:00 16,1 15,8 18 10 37 20 WSW 1021,2 - 0,0
14.07.2020 02:00:00 16,1 15,5 19 10 33 18 WSW 1021,7 - 0,4
14.07.2020 01:00:00 15,6 14,3 17 9 29 16 WSW 1022,2 - 0,0
14.07.2020 00:00:00 16,0 13,3 16 8 24 13 WSW 1022,7 - 0,0
13.07.2020 23:00:00 15,9 12,3 14 7 26 14 WSW 1023,2 - 0,0
13.07.2020 22:00:00 16,3 11,0 13 7 23 12 WSW 1023,2 - 0,0
13.07.2020 21:00:00 16,9 10,7 14 8 29 16 W 1023,5 - 0,0
13.07.2020 20:00:00 19,3 12,3 17 9 28 15 W 1024,0 20 0,0
13.07.2020 19:00:00 20,0 11,2 13 7 26 14 W 1024,1 - 0,0
13.07.2020 18:00:00 19,3 12,3 15 8 26 14 NW 1024,6 - 0,0
13.07.2020 17:00:00 19,9 12,6 13 7 20 11 NW 1024,9 20 0,0
13.07.2020 16:00:00 20,2 11,7 11 6 17 9 NW 1025,4 - 0,0
13.07.2020 15:00:00 19,0 12,7 8 4 15 8 NW 1025,8 - 0,0
13.07.2020 14:00:00 20,6 11,5 9 5 16 9 N 1026,2 20 0,0
13.07.2020 13:00:00 20,1 14,2 12 6 21 11 N 1026,8 - 0,0
13.07.2020 12:00:00 19,2 13,4 10 5 13 7 N 1027,0 - 0,0
13.07.2020 11:00:00 18,7 13,1 6 3 10 5 NNE 1027,0 20 0,0
13.07.2020 10:00:00 17,9 13,2 6 3 10 5 NE 1027,0 - 0,0
13.07.2020 09:00:00 17,2 12,7 5 3 8 5 ENE 1026,7 - 0,0
13.07.2020 08:00:00 16,4 12,7 5 3 8 5 ENE 1026,7 20 0,0
13.07.2020 07:00:00 14,5 12,4 5 3 9 5 E 1026,5 - 0,0
13.07.2020 06:00:00 14,1 12,0 6 4 18 10 E 1026,4 - 0,0
13.07.2020 05:00:00 14,9 12,6 13 7 19 10 ENE 1026,5 - 0,0
13.07.2020 04:00:00 14,7 12,7 13 7 16 9 NE 1027,1 - 0,0
13.07.2020 03:00:00 14,9 12,9 13 7 19 10 NNE 1027,5 - 0,0
13.07.2020 02:00:00 15,1 12,8 14 7 18 10 NE 1027,4 - 0,0
13.07.2020 01:00:00 15,1 12,2 12 7 20 11 NE 1027,6 - 0,0
13.07.2020 00:00:00 15,5 11,9 16 9 21 11 NE 1027,6 - 0,0
12.07.2020 23:00:00 15,6 12,0 17 9 22 12 NE 1027,5 - 0,0
12.07.2020 22:00:00 16,0 12,2 16 9 26 14 NE 1027,2 - 0,0
12.07.2020 21:00:00 16,9 12,2 19 11 29 15 NE 1027,1 - 0,0
12.07.2020 20:00:00 17,5 12,4 22 12 30 16 NE 1027,0 20 0,0
12.07.2020 19:00:00 18,1 13,0 21 11 30 16 NE 1027,0 - 0,0
12.07.2020 18:00:00 18,5 12,5 22 12 29 16 NE 1027,2 - 0,0
12.07.2020 17:00:00 18,5 12,0 21 11 30 16 NE 1027,4 30 0,0
12.07.2020 16:00:00 18,9 13,5 19 11 34 18 NE 1027,7 - 0,0
12.07.2020 15:00:00 18,9 12,6 25 14 38 21 ENE 1027,7 - 0,0
12.07.2020 14:00:00 18,1 12,3 31 17 39 21 NE 1027,6 30 0,0
12.07.2020 13:00:00 18,2 12,4 28 15 41 22 NE 1027,7 - 0,0
12.07.2020 12:00:00 18,4 11,9 24 13 36 20 ENE 1027,6 - 0,0
12.07.2020 11:00:00 19,0 11,6 18 10 34 18 ENE 1027,8 25 0,0
12.07.2020 10:00:00 18,3 10,9 22 12 34 18 E 1028,0 - 0,0
12.07.2020 09:00:00 16,9 12,6 13 7 21 11 E 1028,1 - 0,0
12.07.2020 08:00:00 15,8 12,2 12 7 23 12 E 1027,8 25 0,0
12.07.2020 07:00:00 14,1 12,1 14 8 21 12 E 1027,0 - 0,0
12.07.2020 06:00:00 13,6 11,5 12 6 20 11 E 1027,0 - 0,0
12.07.2020 05:00:00 14,0 11,5 13 7 29 16 E 1027,0 - 0,0
12.07.2020 04:00:00 14,6 11,0 16 8 27 15 ENE 1027,1 - 0,0
12.07.2020 03:00:00 14,7 11,1 16 8 28 15 ENE 1027,3 - 0,0
12.07.2020 02:00:00 14,9 12,0 21 12 28 15 NE 1027,5 - 0,0
12.07.2020 01:00:00 15,0 11,6 21 12 27 14 NE 1027,9 - 0,0
12.07.2020 00:00:00 15,0 11,9 17 9 22 12 NE 1028,1 - 0,0
11.07.2020 23:00:00 15,1 11,1 16 9 21 11 NE 1028,2 - 0,0
11.07.2020 22:00:00 15,3 11,1 16 8 24 13 NE 1027,8 - 0,0
11.07.2020 21:00:00 15,7 10,5 19 10 24 13 NE 1027,6 - 0,0
11.07.2020 20:00:00 16,2 11,1 17 9 25 13 NE 1027,6 25 0,0
11.07.2020 19:00:00 17,7 11,9 17 9 24 13 NE 1027,5 - 0,0
11.07.2020 18:00:00 17,5 12,8 20 11 29 15 NE 1027,8 - 0,0
11.07.2020 17:00:00 18,1 13,4 20 11 29 16 NE 1027,8 20 0,0
11.07.2020 16:00:00 17,2 12,5 22 12 29 15 NNE 1028,0 - 0,0
11.07.2020 15:00:00 19,2 13,6 17 9 23 12 NNE 1028,5 - 0,0
11.07.2020 14:00:00 18,9 13,3 13 7 19 11 NNE 1028,4 25 0,0
11.07.2020 13:00:00 18,2 12,4 12 7 19 10 NE 1028,3 - 0,0
11.07.2020 12:00:00 17,4 12,3 12 7 19 10 NE 1028,1 - 0,0
11.07.2020 11:00:00 16,8 12,1 14 8 21 11 NE 1028,0 25 0,0
11.07.2020 10:00:00 16,8 12,3 14 8 21 12 NE 1027,8 - 0,0
11.07.2020 09:00:00 16,7 12,2 13 7 20 11 NNE 1027,6 - 0,0
11.07.2020 08:00:00 15,4 11,8 12 7 22 12 NNE 1027,2 20 0,0
11.07.2020 07:00:00 13,6 10,9 15 8 23 12 NNE 1026,6 - 0,0
11.07.2020 06:00:00 13,3 10,5 18 10 28 15 NNE 1026,2 - 0,0
11.07.2020 05:00:00 13,4 10,6 19 10 34 19 NNE 1025,9 - 0,0
11.07.2020 04:00:00 13,8 10,6 21 11 32 18 NNE 1025,5 - 0,0
11.07.2020 03:00:00 14,1 10,9 23 13 36 20 NNE 1025,6 - 0,0
11.07.2020 02:00:00 14,1 10,9 24 13 33 18 N 1025,8 - 0,0
11.07.2020 01:00:00 13,8 11,1 18 10 28 15 N 1025,5 - 0,0
11.07.2020 00:00:00 13,9 10,9 15 8 26 14 NNW 1025,0 - 0,0
10.07.2020 23:00:00 13,8 10,4 13 7 26 14 NNW 1024,6 - 0,0
10.07.2020 22:00:00 14,6 9,4 14 8 24 13 NNW 1024,1 - 0,0
10.07.2020 21:00:00 16,0 9,4 16 9 27 15 NNW 1023,9 - 0,0
10.07.2020 20:00:00 17,0 9,7 15 8 28 15 NNW 1023,6 20 0,0
10.07.2020 19:00:00 17,2 9,9 16 9 34 18 NNW 1023,2 - 0,0
10.07.2020 18:00:00 16,5 10,3 19 10 29 16 NNW 1023,2 - 0,0
10.07.2020 17:00:00 18,1 12,8 16 9 29 16 NNW 1023,0 20 0,0
10.07.2020 16:00:00 17,8 13,1 15 8 24 13 NNW 1022,9 - 0,0
10.07.2020 15:00:00 18,4 13,7 13 7 25 13 NNW 1022,5 - 0,0
10.07.2020 14:00:00 18,1 13,8 12 6 25 14 NNW 1022,1 20 0,0
10.07.2020 13:00:00 18,0 13,9 11 6 24 13 NNW 1021,9 - 0,0
10.07.2020 12:00:00 17,1 13,4 12 7 24 13 NNW 1021,4 - 0,0
10.07.2020 11:00:00 16,2 13,3 17 9 28 15 NW 1020,8 20 0,0
10.07.2020 10:00:00 16,2 13,7 15 8 31 17 NW 1020,3 - 0,0
10.07.2020 09:00:00 15,7 13,4 17 9 34 19 NNW 1019,7 - 0,0
10.07.2020 08:00:00 14,9 13,3 17 9 37 20 NW 1019,2 15 0,0
10.07.2020 07:00:00 14,3 12,7 23 12 - - NW 1018,7 - 0,0
10.07.2020 06:00:00 14,0 12,4 - - - - - 1018,2 - 0,0
10.07.2020 05:00:00 13,9 12,1 - - - - - 1017,9 - 0,0
10.07.2020 04:00:00 14,1 12,7 - - - - - 1017,6 - 0,0
10.07.2020 03:00:00 14,1 12,7 - - - - - 1017,6 - 0,0
10.07.2020 02:00:00 14,5 14,0 - - - - - 1017,1 - 0,0
10.07.2020 01:00:00 15,2 14,9 - - - - - 1016,9 - 0,0
10.07.2020 00:00:00 15,1 14,8 - - - - - 1016,5 - 0,0
09.07.2020 23:00:00 15,2 14,7 - - - - - 1016,4 - 0,0
09.07.2020 22:00:00 15,2 14,2 - - - - - 1015,7 - 0,0
09.07.2020 21:00:00 15,2 14,6 - - - - - 1015,7 - 0,0
09.07.2020 20:00:00 15,5 14,9 - - - - - 1015,7 8 0,0
09.07.2020 19:00:00 15,9 14,8 - - - - - 1015,6 - 0,0
09.07.2020 18:00:00 16,1 14,8 - - - - - 1015,6 - 0,0
09.07.2020 17:00:00 16,8 15,3 - - - - - 1015,6 12 -
09.07.2020 16:00:00 18,5 15,7 - - - - - 1015,8 - 0,0
09.07.2020 15:00:00 20,2 16,6 - - - - - 1015,6 - 0,0
09.07.2020 14:00:00 21,2 16,4 - - - - - 1015,9 20 0,0
09.07.2020 13:00:00 20,4 16,0 - - - - - 1015,9 - -
09.07.2020 12:00:00 18,8 15,3 - - - - - 1016,3 - 0,0
09.07.2020 11:00:00 19,3 15,4 - - - - - 1016,2 20 0,0
09.07.2020 10:00:00 18,4 15,5 - - - - - 1016,0 - 0,0
09.07.2020 09:00:00 16,8 15,0 - - - - - 1016,1 - 0,0
09.07.2020 08:00:00 - - - - - - - - - -
09.07.2020 07:00:00 - - - - - - - - - -
09.07.2020 06:00:00 - - - - - - - - - -
09.07.2020 05:00:00 - - - - - - - - - -
09.07.2020 04:00:00 - - - - - - - - - -
09.07.2020 03:00:00 - - - - - - - - - -
09.07.2020 02:00:00 - - - - - - - - - -
09.07.2020 01:00:00 - - - - - - - - - -
09.07.2020 00:00:00 - - - - - - - - - -
08.07.2020 23:00:00 - - - - - - - - - -
08.07.2020 22:00:00 - - - - - - - - - -
08.07.2020 21:00:00 - - - - - - - - - -
08.07.2020 20:00:00 - - - - - - - - - -
08.07.2020 19:00:00 - - - - - - - - - -
08.07.2020 18:00:00 - - - - - - - - - -
08.07.2020 17:00:00 - - - - - - - - - -

tt = Température de l'air
td = dewpoint
ff = Vitesse du vent
fx = gusts
dd = Direction du vent
ppp = reduced air pressure
vv = visibility
rr = Quantités de précipitations

stations d'obs. à proximité